TimeMST,TemperatureF,Dew PointF,Humidity,Sea Level PressureIn,VisibilityMPH,Wind Direction,Wind SpeedMPH,Gust SpeedMPH,PrecipitationIn,Events,Conditions,WindDirDegrees,DateUTC
12:15 AM,26.6,21.2,80,29.90,10.0,NW,11.5,-,N/A,,Mostly Cloudy,310,2012-12-07 07:15:00
12:35 AM,26.6,23.0,86,29.90,10.0,NNW,12.7,-,N/A,,Scattered Clouds,330,2012-12-07 07:35:00
12:55 AM,26.6,23.0,86,29.90,10.0,NW,11.5,-,N/A,,Clear,310,2012-12-07 07:55:00
1:15 AM,26.6,23.0,86,29.90,10.0,WNW,11.5,-,N/A,,Clear,290,2012-12-07 08:15:00
1:35 AM,26.6,23.0,86,29.90,10.0,WNW,11.5,-,N/A,,Clear,300,2012-12-07 08:35:00
1:55 AM,24.8,21.2,86,29.90,10.0,NW,8.1,-,N/A,,Clear,320,2012-12-07 08:55:00
2:15 AM,23.0,21.2,93,29.91,10.0,WNW,6.9,-,N/A,,Scattered Clouds,300,2012-12-07 09:15:00
2:35 AM,24.8,19.4,80,29.92,10.0,NNW,6.9,-,N/A,,Mostly Cloudy,330,2012-12-07 09:35:00
2:55 AM,23.0,19.4,86,29.92,10.0,NW,3.5,-,N/A,,Mostly Cloudy,310,2012-12-07 09:55:00
3:15 AM,23.0,21.2,93,29.92,10.0,WNW,3.5,-,N/A,,Overcast,290,2012-12-07 10:15:00
3:35 AM,23.0,21.2,93,29.92,10.0,NNW,4.6,-,N/A,,Overcast,330,2012-12-07 10:35:00
3:55 AM,21.2,19.4,93,29.92,10.0,NNW,4.6,-,N/A,,Scattered Clouds,340,2012-12-07 10:55:00
4:15 AM,21.2,17.6,86,29.91,10.0,WNW,3.5,-,N/A,,Clear,300,2012-12-07 11:15:00
4:35 AM,19.4,17.6,93,29.92,10.0,NNW,4.6,-,N/A,,Clear,330,2012-12-07 11:35:00
4:55 AM,19.4,17.6,93,29.91,10.0,West,3.5,-,N/A,,Clear,270,2012-12-07 11:55:00
5:15 AM,19.4,15.8,86,29.92,10.0,NNW,3.5,-,N/A,,Clear,330,2012-12-07 12:15:00
5:35 AM,15.8,14.0,93,29.92,10.0,West,3.5,-,N/A,,Clear,270,2012-12-07 12:35:00
5:55 AM,15.8,14.0,93,29.91,10.0,West,5.8,-,N/A,,Clear,280,2012-12-07 12:55:00
6:15 AM,14.0,14.0,100,29.92,10.0,Calm,Calm,-,N/A,,Clear,0,2012-12-07 13:15:00
6:35 AM,12.2,10.4,92,29.92,10.0,Calm,Calm,-,N/A,,Clear,0,2012-12-07 13:35:00
6:55 AM,12.2,12.2,100,29.92,10.0,Calm,Calm,-,N/A,,Scattered Clouds,0,2012-12-07 13:55:00
7:15 AM,14.0,12.2,93,29.93,10.0,Calm,Calm,-,N/A,,Mostly Cloudy,0,2012-12-07 14:15:00
7:35 AM,14.0,12.2,93,29.93,10.0,Calm,Calm,-,N/A,,Mostly Cloudy,0,2012-12-07 14:35:00
7:55 AM,14.0,12.2,93,29.93,10.0,Calm,Calm,-,N/A,,Scattered Clouds,0,2012-12-07 14:55:00
8:15 AM,15.8,14.0,93,29.94,10.0,Calm,Calm,-,N/A,,Scattered Clouds,0,2012-12-07 15:15:00
8:35 AM,17.6,15.8,93,29.95,10.0,Calm,Calm,-,N/A,,Scattered Clouds,0,2012-12-07 15:35:00
8:55 AM,19.4,17.6,93,29.95,10.0,Calm,Calm,-,N/A,,Scattered Clouds,0,2012-12-07 15:55:00
9:15 AM,21.2,19.4,93,29.95,10.0,Calm,Calm,-,N/A,,Mostly Cloudy,0,2012-12-07 16:15:00
9:35 AM,24.8,19.4,80,29.95,10.0,West,5.8,-,N/A,,Overcast,270,2012-12-07 16:35:00
9:55 AM,24.8,19.4,80,29.96,10.0,NW,5.8,-,N/A,,Mostly Cloudy,310,2012-12-07 16:55:00
10:15 AM,26.6,19.4,74,29.97,10.0,NW,3.5,-,N/A,,Mostly Cloudy,320,2012-12-07 17:15:00
10:35 AM,26.6,19.4,74,29.97,10.0,NW,5.8,-,N/A,,Mostly Cloudy,310,2012-12-07 17:35:00
10:55 AM,26.6,19.4,74,29.97,10.0,West,5.8,-,N/A,,Mostly Cloudy,280,2012-12-07 17:55:00
11:15 AM,28.4,17.6,64,29.97,10.0,NW,11.5,17.3,N/A,,Overcast,310,2012-12-07 18:15:00
11:35 AM,26.6,15.8,64,29.97,10.0,WNW,11.5,-,N/A,,Mostly Cloudy,300,2012-12-07 18:35:00
11:55 AM,26.6,15.8,64,29.97,10.0,WNW,10.4,-,N/A,,Scattered Clouds,290,2012-12-07 18:55:00
12:15 PM,28.4,15.8,59,29.96,10.0,NW,9.2,-,N/A,,Mostly Cloudy,320,2012-12-07 19:15:00
12:35 PM,28.4,14.0,55,29.95,10.0,WNW,12.7,16.1,N/A,,Overcast,290,2012-12-07 19:35:00
12:55 PM,28.4,14.0,55,29.95,10.0,WNW,13.8,-,N/A,,Scattered Clouds,290,2012-12-07 19:55:00
1:15 PM,28.4,14.0,55,29.95,10.0,WNW,12.7,-,N/A,,Scattered Clouds,300,2012-12-07 20:15:00
1:35 PM,30.2,14.0,51,29.95,10.0,WNW,15.0,-,N/A,,Mostly Cloudy,300,2012-12-07 20:35:00
1:55 PM,30.2,12.2,47,29.93,10.0,West,17.3,24.2,N/A,,Mostly Cloudy,270,2012-12-07 20:55:00
2:15 PM,28.4,12.2,51,29.93,10.0,WNW,12.7,-,N/A,,Scattered Clouds,300,2012-12-07 21:15:00
2:35 PM,28.4,12.2,51,29.93,10.0,West,8.1,-,N/A,,Mostly Cloudy,280,2012-12-07 21:35:00
2:55 PM,28.4,14.0,55,29.93,10.0,NNW,6.9,-,N/A,,Mostly Cloudy,330,2012-12-07 21:55:00
3:15 PM,28.4,14.0,55,29.93,10.0,West,5.8,9.2,N/A,,Mostly Cloudy,280,2012-12-07 22:15:00
3:35 PM,28.4,12.2,51,29.93,10.0,West,5.8,-,N/A,,Mostly Cloudy,280,2012-12-07 22:35:00
3:55 PM,28.4,12.2,51,29.93,10.0,West,8.1,-,N/A,,Mostly Cloudy,270,2012-12-07 22:55:00
4:15 PM,28.4,12.2,51,29.93,10.0,West,6.9,-,N/A,,Scattered Clouds,280,2012-12-07 23:15:00
4:35 PM,26.6,14.0,59,29.93,10.0,WSW,4.6,-,N/A,,Mostly Cloudy,250,2012-12-07 23:35:00
4:55 PM,24.8,14.0,64,29.93,10.0,Calm,Calm,-,N/A,,Mostly Cloudy,0,2012-12-07 23:55:00
5:15 PM,23.0,14.0,68,29.93,10.0,Calm,Calm,-,N/A,,Mostly Cloudy,0,2012-12-08 00:15:00
5:35 PM,23.0,14.0,68,29.93,10.0,Calm,Calm,-,N/A,,Mostly Cloudy,0,2012-12-08 00:35:00
5:55 PM,23.0,14.0,68,29.92,10.0,Calm,Calm,-,N/A,,Overcast,0,2012-12-08 00:55:00
6:15 PM,23.0,14.0,68,29.92,10.0,North,3.5,-,N/A,,Overcast,10,2012-12-08 01:15:00
6:35 PM,23.0,17.6,80,29.92,10.0,Calm,Calm,-,N/A,,Overcast,0,2012-12-08 01:35:00
6:55 PM,23.0,17.6,80,29.92,10.0,Calm,Calm,-,N/A,,Overcast,0,2012-12-08 01:55:00
7:15 PM,23.0,14.0,68,29.91,10.0,ENE,4.6,-,N/A,,Overcast,70,2012-12-08 02:15:00
7:35 PM,23.0,14.0,68,29.90,10.0,East,3.5,-,N/A,,Overcast,80,2012-12-08 02:35:00
7:55 PM,23.0,15.8,74,29.90,10.0,Calm,Calm,-,N/A,,Overcast,0,2012-12-08 02:55:00
8:15 PM,23.0,15.8,74,29.89,10.0,Calm,Calm,-,N/A,,Overcast,0,2012-12-08 03:15:00
8:55 PM,23.0,15.8,74,29.87,10.0,Calm,Calm,-,N/A,,Overcast,0,2012-12-08 03:55:00
9:15 PM,23.0,17.6,80,29.86,10.0,NE,3.5,-,N/A,,Overcast,40,2012-12-08 04:15:00
9:35 PM,23.0,17.6,80,29.85,10.0,Calm,Calm,-,N/A,,Overcast,0,2012-12-08 04:35:00
9:55 PM,24.8,17.6,74,29.85,10.0,South,6.9,-,N/A,,Overcast,190,2012-12-08 04:55:00
10:15 PM,24.8,17.6,74,29.84,10.0,SSW,6.9,-,N/A,,Overcast,200,2012-12-08 05:15:00
10:35 PM,24.8,17.6,74,29.83,10.0,SSW,6.9,-,N/A,,Overcast,200,2012-12-08 05:35:00
10:55 PM,24.8,19.4,80,29.82,7.0,SSW,8.1,-,N/A,,Overcast,210,2012-12-08 05:55:00
11:15 PM,23.0,21.2,93,29.81,4.0,SSW,8.1,-,N/A,Snow,Light Snow,210,2012-12-08 06:15:00
11:35 PM,23.0,21.2,93,29.80,5.0,SSW,6.9,-,N/A,Snow,Light Snow,200,2012-12-08 06:35:00
11:55 PM,23.0,21.2,93,29.79,7.0,SSW,5.8,-,N/A,,Overcast,200,2012-12-08 06:55:00